When you browse on this site, cookies collect data to enhance your experience and personalize the content and advertising you see.
Visit our Privacy Policy to learn more. By continuing to use the site, you agree to this use of cookies and data.
  • In Österreich
  • Länderverzeichnis
  • Für 7 Tage
  • Wassertemperatur
  • Satellitenkarten
  • Wetterkarte
  • News
  • Widgets
  • user-avatar
    Anmelden

    Stündliche Wetter Chechelnik

    Heute, 19 April, Freitag

    Zeit Temperatur Niederschläge Wind Luftdruck Luftfeuchtigkeit
    00:00 +8°C° 0 mm 1 m/S 747 mmHg 67%
    01:00 +8°C° 0 mm 1 m/S 747 mmHg 70%
    02:00 +8°C° 0 mm 1 m/S 746 mmHg 72%
    03:00 +8°C° 0.5 mm 1 m/S 746 mmHg 77%
    04:00 +6°C° 0.5 mm 0 m/S 746 mmHg 82%
    05:00 +6°C° 0.5 mm 0 m/S 746 mmHg 86%
    06:00 +8°C° 0.3 mm 1 m/S 746 mmHg 83%
    07:00 +9°C° 0.3 mm 1 m/S 746 mmHg 79%
    08:00 +9°C° 0.3 mm 2 m/S 746 mmHg 76%
    09:00 +10°C° 0.8 mm 3 m/S 746 mmHg 70%
    10:00 +11°C° 0.8 mm 3 m/S 747 mmHg 63%
    11:00 +12°C° 0.8 mm 4 m/S 747 mmHg 57%
    12:00 +12°C° 0.6 mm 4 m/S 747 mmHg 56%
    13:00 +12°C° 0.6 mm 4 m/S 747 mmHg 55%
    14:00 +12°C° 0.6 mm 4 m/S 747 mmHg 53%
    15:00 +12°C° 0.3 mm 4 m/S 748 mmHg 52%
    16:00 +12°C° 0.3 mm 4 m/S 748 mmHg 50%
    17:00 +12°C° 0.3 mm 4 m/S 748 mmHg 48%
    18:00 +11°C° 0 mm 4 m/S 748 mmHg 52%
    19:00 +9°C° 0 mm 3 m/S 748 mmHg 57%
    20:00 +8°C° 0 mm 3 m/S 749 mmHg 61%
    21:00 +8°C° 0 mm 3 m/S 749 mmHg 63%
    22:00 +7°C° 0 mm 3 m/S 749 mmHg 65%
    23:00 +5°C° 0 mm 3 m/S 749 mmHg 67%

    Morgen, 20 April, Samstag

    Zeit Temperatur Niederschläge Wind Luftdruck Luftfeuchtigkeit
    00:00 +4°C° 0 mm 3 m/S 750 mmHg 68%
    01:00 +5°C° 0 mm 2 m/S 750 mmHg 69%
    02:00 +5°C° 0 mm 2 m/S 750 mmHg 70%
    03:00 +4°C° 0 mm 2 m/S 750 mmHg 71%
    04:00 +3°C° 0 mm 3 m/S 750 mmHg 72%
    05:00 +3°C° 0 mm 3 m/S 750 mmHg 74%
    06:00 +4°C° 0 mm 3 m/S 750 mmHg 69%
    07:00 +7°C° 0 mm 3 m/S 750 mmHg 65%
    08:00 +8°C° 0 mm 3 m/S 750 mmHg 60%
    09:00 +8°C° 0 mm 4 m/S 750 mmHg 54%
    10:00 +10°C° 0 mm 4 m/S 750 mmHg 48%
    11:00 +12°C° 0 mm 4 m/S 750 mmHg 43%
    12:00 +12°C° 0 mm 3 m/S 750 mmHg 43%
    13:00 +12°C° 0 mm 3 m/S 750 mmHg 43%
    14:00 +12°C° 0 mm 3 m/S 750 mmHg 43%
    15:00 +12°C° 0 mm 3 m/S 749 mmHg 44%
    16:00 +12°C° 0 mm 3 m/S 749 mmHg 45%
    17:00 +12°C° 0 mm 2 m/S 749 mmHg 46%
    18:00 +10°C° 0 mm 2 m/S 749 mmHg 49%
    19:00 +10°C° 0 mm 1 m/S 749 mmHg 52%
    20:00 +9°C° 0 mm 1 m/S 749 mmHg 55%
    21:00 +9°C° 0 mm 1 m/S 749 mmHg 56%
    22:00 +8°C° 0 mm 0 m/S 749 mmHg 56%
    23:00 +8°C° 0 mm 0 m/S 748 mmHg 56%

    übermorgen, 21 April, Sonntag

    Zeit Temperatur Niederschläge Wind Luftdruck Luftfeuchtigkeit
    00:00 +8°C° 0 mm 0 m/S 748 mmHg 57%
    01:00 +7°C° 0 mm 0 m/S 748 mmHg 57%
    02:00 +8°C° 0 mm 1 m/S 748 mmHg 57%
    03:00 +8°C° 0 mm 1 m/S 748 mmHg 58%
    04:00 +8°C° 0 mm 1 m/S 747 mmHg 59%
    05:00 +7°C° 0 mm 1 m/S 747 mmHg 60%
    06:00 +8°C° 0 mm 1 m/S 747 mmHg 58%
    07:00 +9°C° 0 mm 1 m/S 748 mmHg 56%
    08:00 +10°C° 0 mm 1 m/S 748 mmHg 54%
    09:00 +11°C° 0 mm 1 m/S 748 mmHg 50%
    10:00 +12°C° 0 mm 2 m/S 748 mmHg 46%
    11:00 +13°C° 0 mm 2 m/S 748 mmHg 42%
    12:00 +13°C° 0 mm 2 m/S 747 mmHg 42%
    13:00 +14°C° 0 mm 2 m/S 747 mmHg 42%
    14:00 +13°C° 0 mm 3 m/S 747 mmHg 41%
    15:00 +13°C° 0 mm 3 m/S 747 mmHg 42%
    16:00 +12°C° 0 mm 3 m/S 747 mmHg 43%
    17:00 +12°C° 0 mm 3 m/S 747 mmHg 44%
    18:00 +11°C° 0 mm 3 m/S 747 mmHg 48%
    19:00 +10°C° 0 mm 3 m/S 747 mmHg 52%
    20:00 +9°C° 0 mm 3 m/S 747 mmHg 56%
    21:00 +8°C° 0 mm 2 m/S 748 mmHg 57%
    22:00 +8°C° 0 mm 2 m/S 748 mmHg 59%
    23:00 +7°C° 0 mm 2 m/S 748 mmHg 60%

    22 April, Montag

    Zeit Temperatur Niederschläge Wind Luftdruck Luftfeuchtigkeit
    00:00 +7°C° 0 mm 2 m/S 748 mmHg 62%
    01:00 +6°C° 0 mm 2 m/S 748 mmHg 63%
    02:00 +6°C° 0 mm 2 m/S 748 mmHg 65%
    03:00 +6°C° 0 mm 2 m/S 748 mmHg 65%
    04:00 +5°C° 0 mm 2 m/S 748 mmHg 65%
    05:00 +5°C° 0 mm 2 m/S 749 mmHg 65%
    06:00 +7°C° 0 mm 2 m/S 749 mmHg 61%
    07:00 +8°C° 0 mm 3 m/S 749 mmHg 56%
    08:00 +10°C° 0 mm 4 m/S 750 mmHg 52%
    09:00 +11°C° 0 mm 4 m/S 750 mmHg 48%
    10:00 +12°C° 0 mm 4 m/S 750 mmHg 45%
    11:00 +13°C° 0 mm 4 m/S 750 mmHg 42%
    12:00 +13°C° 0 mm 4 m/S 750 mmHg 42%
    13:00 +13°C° 0 mm 4 m/S 750 mmHg 43%
    14:00 +13°C° 0 mm 4 m/S 750 mmHg 43%
    15:00 +13°C° 0 mm 4 m/S 750 mmHg 44%
    16:00 +13°C° 0 mm 4 m/S 750 mmHg 45%
    17:00 +13°C° 0 mm 4 m/S 750 mmHg 46%
    18:00 +11°C° 0 mm 3 m/S 750 mmHg 50%
    19:00 +10°C° 0 mm 3 m/S 750 mmHg 54%
    20:00 +9°C° 0 mm 2 m/S 750 mmHg 58%
    21:00 +8°C° 0 mm 2 m/S 750 mmHg 60%
    22:00 +8°C° 0 mm 2 m/S 751 mmHg 61%
    23:00 +7°C° 0 mm 2 m/S 751 mmHg 63%

    23 April, Dienstag

    Zeit Temperatur Niederschläge Wind Luftdruck Luftfeuchtigkeit
    00:00 +7°C° 0 mm 2 m/S 751 mmHg 65%
    01:00 +7°C° 0 mm 2 m/S 751 mmHg 67%
    02:00 +5°C° 0 mm 3 m/S 751 mmHg 68%
    03:00 +5°C° 0 mm 3 m/S 751 mmHg 70%
    04:00 +5°C° 0 mm 3 m/S 751 mmHg 71%
    05:00 +4°C° 0 mm 3 m/S 751 mmHg 73%
    06:00 +7°C° 0 mm 3 m/S 751 mmHg 69%
    07:00 +8°C° 0 mm 4 m/S 752 mmHg 64%
    08:00 +10°C° 0 mm 4 m/S 752 mmHg 60%
    09:00 +12°C° 0 mm 4 m/S 752 mmHg 54%
    10:00 +13°C° 0 mm 5 m/S 752 mmHg 48%
    11:00 +14°C° 0 mm 5 m/S 752 mmHg 43%
    12:00 +15°C° 0 mm 5 m/S 752 mmHg 42%
    13:00 +15°C° 0 mm 5 m/S 752 mmHg 42%
    14:00 +15°C° 0 mm 5 m/S 752 mmHg 42%
    15:00 +15°C° 0 mm 5 m/S 751 mmHg 43%
    16:00 +14°C° 0 mm 5 m/S 751 mmHg 44%
    17:00 +14°C° 0 mm 5 m/S 751 mmHg 45%
    18:00 +13°C° 0 mm 5 m/S 751 mmHg 49%
    19:00 +12°C° 0 mm 4 m/S 751 mmHg 52%
    20:00 +11°C° 0 mm 4 m/S 751 mmHg 56%
    21:00 +10°C° 0 mm 3 m/S 751 mmHg 59%
    22:00 +9°C° 0 mm 3 m/S 751 mmHg 62%
    23:00 +8°C° 0 mm 3 m/S 752 mmHg 64%

    24 April, Mittwoch

    Zeit Temperatur Niederschläge Wind Luftdruck Luftfeuchtigkeit
    00:00 +8°C° 0 mm 3 m/S 751 mmHg 66%
    01:00 +7°C° 0 mm 3 m/S 751 mmHg 68%
    02:00 +7°C° 0 mm 3 m/S 751 mmHg 69%
    03:00 +5°C° 0 mm 3 m/S 752 mmHg 70%
    04:00 +5°C° 0 mm 3 m/S 752 mmHg 71%
    05:00 +5°C° 0 mm 3 m/S 752 mmHg 72%
    06:00 +6°C° 0 mm 4 m/S 752 mmHg 66%
    07:00 +8°C° 0 mm 4 m/S 752 mmHg 61%
    08:00 +10°C° 0 mm 5 m/S 752 mmHg 55%
    09:00 +12°C° 0 mm 5 m/S 752 mmHg 52%
    10:00 +13°C° 0 mm 6 m/S 752 mmHg 49%
    11:00 +14°C° 0 mm 6 m/S 752 mmHg 45%
    12:00 +15°C° 0 mm 6 m/S 752 mmHg 44%
    13:00 +16°C° 0 mm 5 m/S 752 mmHg 43%
    14:00 +16°C° 0 mm 5 m/S 752 mmHg 41%
    15:00 +16°C° 0 mm 5 m/S 752 mmHg 42%
    16:00 +16°C° 0 mm 5 m/S 751 mmHg 42%
    17:00 +17°C° 0 mm 4 m/S 751 mmHg 43%
    18:00 +14°C° 0 mm 4 m/S 751 mmHg 47%
    19:00 +13°C° 0 mm 3 m/S 751 mmHg 52%
    20:00 +12°C° 0 mm 2 m/S 752 mmHg 57%
    21:00 +10°C° 0 mm 2 m/S 752 mmHg 59%
    22:00 +10°C° 0 mm 2 m/S 752 mmHg 61%
    23:00 +9°C° 0 mm 2 m/S 752 mmHg 63%
    Mehr zeigen